,,,PA_Meas_PMT16A,,PR_Meas_QMR101_102,,RH_Meas_QMH101,,SR_Meas_QMS101,,TA_Meas_QMH101,,GenWind,,GenWind,
date,time,status,PA,status,PR,status,RH,status,SR,status,TA,status,DirAvg,status,SpdAvg,
2009-09-27, 00:00:04,VALID,1008.64,VALID,0,VALID,98.9289,VALID,0,VALID,23.2459,VALID,16,VALID,0,
2009-09-27, 00:01:04,VALID,1008.64,VALID,0,VALID,98.9289,VALID,0,VALID,23.2654,VALID,16,VALID,0,
2009-09-27, 00:02:04,VALID,1008.6,VALID,0,VALID,98.9442,VALID,0,VALID,23.2654,VALID,16,VALID,0,
2009-09-27, 00:03:04,VALID,1008.59,VALID,0,VALID,98.9365,VALID,0,VALID,23.2459,VALID,16,VALID,0,
2009-09-27, 00:04:04,VALID,1008.62,VALID,0,VALID,98.9365,VALID,0.105969,VALID,23.2459,VALID,16,VALID,0,
2009-09-27, 00:05:04,VALID,1008.61,VALID,0,VALID,98.9442,VALID,0,VALID,23.2264,VALID,16,VALID,0,
2009-09-27, 00:06:04,VALID,1008.61,VALID,0,VALID,98.9594,VALID,0.105969,VALID,23.2264,VALID,16,VALID,0,
2009-09-27, 00:07:04,VALID,1008.6,VALID,0,VALID,98.9594,VALID,0,VALID,23.2069,VALID,16,VALID,0,
2009-09-27, 00:08:04,VALID,1008.57,VALID,0,VALID,98.9518,VALID,0,VALID,23.2264,VALID,16,VALID,0,
2009-09-27, 00:09:04,VALID,1008.55,VALID,0,VALID,98.9747,VALID,0,VALID,23.2087,VALID,16,VALID,0,
2009-09-27, 00:10:04,VALID,1008.55,VALID,0,VALID,98.967,VALID,0.105969,VALID,23.1857,VALID,16,VALID,0,
2009-09-27, 00:11:04,VALID,1008.55,VALID,0,VALID,98.9594,VALID,0,VALID,23.1662,VALID,16,VALID,0,
2009-09-27, 00:12:04,VALID,1008.51,VALID,0,VALID,98.967,VALID,0.105969,VALID,23.1662,VALID,16,VALID,0,
2009-09-27, 00:13:04,VALID,1008.5,VALID,0,VALID,98.9594,VALID,0,VALID,23.1874,VALID,16,VALID,0,
2009-09-27, 00:14:04,VALID,1008.49,VALID,0,VALID,98.9594,VALID,0,VALID,23.1874,VALID,16,VALID,0,
2009-09-27, 00:15:04,VALID,1008.47,VALID,0,VALID,98.9594,VALID,0.105969,VALID,23.1874,VALID,16,VALID,0,
2009-09-27, 00:16:04,VALID,1008.49,VALID,0,VALID,98.9899,VALID,0,VALID,23.1874,VALID,16,VALID,0,
2009-09-27, 00:17:04,VALID,1008.48,VALID,0,VALID,98.9747,VALID,0,VALID,23.1874,VALID,16,VALID,0,
2009-09-27, 00:18:04,VALID,1008.45,VALID,0,VALID,98.967,VALID,0,VALID,23.2069,VALID,16,VALID,0,
2009-09-27, 00:19:04,VALID,1008.45,VALID,0,VALID,98.967,VALID,0,VALID,23.2069,VALID,16,VALID,0,
2009-09-27, 00:20:04,VALID,1008.41,VALID,0,VALID,98.9823,VALID,0,VALID,23.2069,VALID,16,VALID,0,
2009-09-27, 00:21:04,VALID,1008.44,VALID,0,VALID,98.9594,VALID,0.105969,VALID,23.1857,VALID,16,VALID,0,
2009-09-27, 00:22:04,VALID,1008.44,VALID,0,VALID,98.9747,VALID,0,VALID,23.2264,VALID,16,VALID,0,
2009-09-27, 00:23:04,VALID,1008.46,VALID,0,VALID,98.9899,VALID,0.105969,VALID,23.1857,VALID,14,VALID,0,
2009-09-27, 00:24:04,VALID,1008.46,VALID,0,VALID,98.9975,VALID,0,VALID,23.2069,VALID,7,VALID,0,
2009-09-27, 00:25:04,VALID,1008.48,VALID,0,VALID,98.9823,VALID,0,VALID,23.2069,VALID,7,VALID,0,
2009-09-27, 00:26:04,VALID,1008.45,VALID,0,VALID,98.9899,VALID,0.105969,VALID,23.2069,VALID,7,VALID,0,
2009-09-27, 00:27:04,VALID,1008.44,VALID,0,VALID,98.9899,VALID,0,VALID,23.2264,VALID,7,VALID,0,
2009-09-27, 00:28:04,VALID,1008.44,VALID,0,VALID,98.9975,VALID,0,VALID,23.2087,VALID,7,VALID,0,
2009-09-27, 00:29:04,VALID,1008.42,VALID,0,VALID,98.9899,VALID,0,VALID,23.1874,VALID,7,VALID,0,
2009-09-27, 00:30:04,VALID,1008.42,VALID,0,VALID,98.9899,VALID,0.105969,VALID,23.1662,VALID,7,VALID,0,
2009-09-27, 00:31:04,VALID,1008.38,VALID,0,VALID,99.0128,VALID,0,VALID,23.1679,VALID,7,VALID,0,
2009-09-27, 00:32:04,VALID,1008.42,VALID,0,VALID,99.0052,VALID,0.105969,VALID,23.1485,VALID,7,VALID,0,
2009-09-27, 00:33:04,VALID,1008.38,VALID,0,VALID,99.0357,VALID,0.105969,VALID,23.1467,VALID,7,VALID,0,
2009-09-27, 00:34:04,VALID,1008.39,VALID,0,VALID,99.0128,VALID,0,VALID,23.1485,VALID,7,VALID,0,
2009-09-27, 00:35:04,VALID,1008.35,VALID,0,VALID,99.0204,VALID,0.105969,VALID,23.129,VALID,7,VALID,0,
2009-09-27, 00:36:04,VALID,1008.35,VALID,0,VALID,98.9975,VALID,0,VALID,23.129,VALID,7,VALID,0,
2009-09-27, 00:37:04,VALID,1008.35,VALID,0,VALID,98.9899,VALID,0,VALID,23.1077,VALID,7,VALID,0,
2009-09-27, 00:38:04,VALID,1008.31,VALID,0,VALID,98.9975,VALID,0,VALID,23.129,VALID,7,VALID,0,
2009-09-27, 00:39:04,VALID,1008.3,VALID,0,VALID,99.0128,VALID,0.105969,VALID,23.1077,VALID,7,VALID,0,
2009-09-27, 00:40:04,VALID,1008.29,VALID,0,VALID,98.9975,VALID,0,VALID,23.1485,VALID,7,VALID,0,
2009-09-27, 00:41:04,VALID,1008.28,VALID,0,VALID,99.0052,VALID,0,VALID,23.129,VALID,7,VALID,0,
2009-09-27, 00:42:04,VALID,1008.27,VALID,0,VALID,99.0052,VALID,0,VALID,23.1095,VALID,7,VALID,0,
2009-09-27, 00:43:04,VALID,1008.22,VALID,0,VALID,99.0128,VALID,0.105969,VALID,23.1095,VALID,7,VALID,0,
2009-09-27, 00:44:04,VALID,1008.21,VALID,0,VALID,99.0204,VALID,0,VALID,23.09,VALID,7,VALID,0,
2009-09-27, 00:45:04,VALID,1008.2,VALID,0,VALID,99.0204,VALID,0.105969,VALID,23.09,VALID,7,VALID,0,
2009-09-27, 00:46:04,VALID,1008.2,VALID,0,VALID,99.0357,VALID,0,VALID,23.09,VALID,7,VALID,0,
2009-09-27, 00:47:04,VALID,1008.17,VALID,0,VALID,99.0433,VALID,0,VALID,23.0705,VALID,7,VALID,0,
2009-09-27, 00:48:04,VALID,1008.15,VALID,0,VALID,99.0204,VALID,0.105969,VALID,23.0705,VALID,7,VALID,0,
2009-09-27, 00:49:04,VALID,1008.15,VALID,0,VALID,99.0357,VALID,0,VALID,23.0511,VALID,7,VALID,0,
2009-09-27, 00:50:04,VALID,1008.13,VALID,0,VALID,99.0357,VALID,0.105969,VALID,23.0316,VALID,7,VALID,0,
2009-09-27, 00:51:04,VALID,1008.13,VALID,0,VALID,99.0357,VALID,0.105969,VALID,23.0121,VALID,7,VALID,0,
2009-09-27, 00:52:04,VALID,1008.13,VALID,0,VALID,99.028,VALID,0,VALID,22.9519,VALID,7,VALID,0,
2009-09-27, 00:53:04,VALID,1008.13,VALID,0,VALID,99.028,VALID,0.105969,VALID,22.9536,VALID,7,VALID,0,
2009-09-27, 00:54:04,VALID,1008.12,VALID,0,VALID,99.0204,VALID,0.105969,VALID,22.9536,VALID,7,VALID,0,
2009-09-27, 00:55:04,VALID,1008.13,VALID,0,VALID,99.0433,VALID,0,VALID,22.9342,VALID,7,VALID,0,
2009-09-27, 00:56:04,VALID,1008.12,VALID,0,VALID,99.0052,VALID,0,VALID,22.9342,VALID,7,VALID,0,
2009-09-27, 00:57:04,VALID,1008.13,VALID,0,VALID,99.0357,VALID,0,VALID,22.9342,VALID,7,VALID,0,
2009-09-27, 00:58:04,VALID,1008.12,VALID,0,VALID,99.0052,VALID,0,VALID,22.9342,VALID,7,VALID,0,
2009-09-27, 00:59:04,VALID,1008.11,VALID,0,VALID,99.0204,VALID,0,VALID,22.9147,VALID,7,VALID,0,
2009-09-27, 01:00:04,VALID,1008.11,VALID,0,VALID,99.0052,VALID,0,VALID,22.9147,VALID,7,VALID,0,
2009-09-27, 01:01:04,VALID,1008.09,VALID,0,VALID,99.0052,VALID,0,VALID,22.9536,VALID,7,VALID,0,
2009-09-27, 01:02:04,VALID,1008.11,VALID,0,VALID,99.0128,VALID,0.105969,VALID,22.9731,VALID,7,VALID,0,
2009-09-27, 01:03:04,VALID,1008.11,VALID,0,VALID,99.0204,VALID,0,VALID,22.9731,VALID,7,VALID,0,
2009-09-27, 01:04:04,VALID,1008.12,VALID,0,VALID,99.0585,VALID,0,VALID,22.9536,VALID,7,VALID,0,
2009-09-27, 01:05:04,VALID,1008.11,VALID,0,VALID,99.0357,VALID,0,VALID,22.9342,VALID,7,VALID,0,
2009-09-27, 01:06:04,VALID,1008.11,VALID,0,VALID,99.028,VALID,0.105969,VALID,22.9536,VALID,7,VALID,0,
2009-09-27, 01:07:04,VALID,1008.09,VALID,0,VALID,99.0128,VALID,0,VALID,22.9536,VALID,7,VALID,0,
2009-09-27, 01:08:04,VALID,1008.11,VALID,0,VALID,99.0128,VALID,0.105969,VALID,22.9536,VALID,7,VALID,0,
2009-09-27, 01:09:04,VALID,1008.08,VALID,0,VALID,99.0204,VALID,0.105969,VALID,22.9342,VALID,7,VALID,0,
2009-09-27, 01:10:04,VALID,1008.1,VALID,0,VALID,99.0204,VALID,0.105969,VALID,22.9147,VALID,7,VALID,0,
2009-09-27, 01:11:04,VALID,1008.08,VALID,0,VALID,99.0204,VALID,0,VALID,22.8935,VALID,7,VALID,0,
2009-09-27, 01:12:04,VALID,1008.06,VALID,0,VALID,99.0204,VALID,0.105969,VALID,22.8935,VALID,7,VALID,0,
2009-09-27, 01:13:04,VALID,1008.09,VALID,0,VALID,99.0128,VALID,0,VALID,22.9342,VALID,7,VALID,0,
2009-09-27, 01:14:04,VALID,1008.05,VALID,0,VALID,99.0128,VALID,0,VALID,22.8952,VALID,7,VALID,0,
2009-09-27, 01:15:04,VALID,1008.04,VALID,0,VALID,99.0128,VALID,0,VALID,22.9359,VALID,7,VALID,0,
2009-09-27, 01:16:04,VALID,1008.03,VALID,0,VALID,99.0128,VALID,0,VALID,22.9359,VALID,7,VALID,0,
2009-09-27, 01:17:04,VALID,1008.01,VALID,0,VALID,98.9899,VALID,0,VALID,22.9359,VALID,7,VALID,0,
2009-09-27, 01:18:04,VALID,1008,VALID,0,VALID,98.9823,VALID,0,VALID,22.9554,VALID,7,VALID,0,
2009-09-27, 01:19:04,VALID,1008,VALID,0,VALID,99.0128,VALID,0,VALID,22.9147,VALID,7,VALID,0,
2009-09-27, 01:20:04,VALID,1007.98,VALID,0,VALID,98.9975,VALID,0,VALID,22.9359,VALID,7,VALID,0,
2009-09-27, 01:21:04,VALID,1008.01,VALID,0,VALID,99.0052,VALID,0,VALID,22.9359,VALID,7,VALID,0,
2009-09-27, 01:22:04,VALID,1008,VALID,0,VALID,98.9823,VALID,0,VALID,22.9342,VALID,7,VALID,0,
2009-09-27, 01:23:04,VALID,1008.04,VALID,0,VALID,99.0128,VALID,0,VALID,22.9554,VALID,7,VALID,0,
2009-09-27, 01:24:04,VALID,1008.02,VALID,0,VALID,99.0357,VALID,0,VALID,22.9342,VALID,7,VALID,0,
2009-09-27, 01:25:04,VALID,1008.01,VALID,0,VALID,99.0204,VALID,0,VALID,22.9164,VALID,7,VALID,0,
2009-09-27, 01:26:04,VALID,1008.02,VALID,0,VALID,99.028,VALID,0,VALID,22.8969,VALID,7,VALID,0,
2009-09-27, 01:27:04,VALID,1008.03,VALID,0,VALID,99.028,VALID,0,VALID,22.8969,VALID,7,VALID,0,
2009-09-27, 01:28:04,VALID,1008.02,VALID,0,VALID,99.028,VALID,0,VALID,22.8775,VALID,7,VALID,0,
2009-09-27, 01:29:04,VALID,1008,VALID,0,VALID,99.0433,VALID,0,VALID,22.8562,VALID,7,VALID,0,
2009-09-27, 01:30:04,VALID,1008.02,VALID,0,VALID,99.0662,VALID,0,VALID,22.8368,VALID,7,VALID,0,
2009-09-27, 01:31:04,VALID,1008.03,VALID,0,VALID,99.0433,VALID,0,VALID,22.8173,VALID,7,VALID,0,
2009-09-27, 01:32:04,VALID,1008.01,VALID,0,VALID,99.0662,VALID,0,VALID,22.8173,VALID,7,VALID,0,
2009-09-27, 01:33:04,VALID,1008.03,VALID,0,VALID,99.0433,VALID,0,VALID,22.819,VALID,7,VALID,0,
2009-09-27, 01:34:04,VALID,1008.03,VALID,0,VALID,99.0204,VALID,0,VALID,22.819,VALID,7,VALID,0,
2009-09-27, 01:35:04,VALID,1008.04,VALID,0,VALID,99.0204,VALID,0,VALID,22.7978,VALID,7,VALID,0,
2009-09-27, 01:36:04,VALID,1008.06,VALID,0,VALID,99.028,VALID,0,VALID,22.7978,VALID,7,VALID,0,
2009-09-27, 01:37:04,VALID,1008.05,VALID,0,VALID,99.0509,VALID,0,VALID,22.7978,VALID,7,VALID,0,
2009-09-27, 01:38:04,VALID,1008,VALID,0,VALID,99.0357,VALID,0,VALID,22.7995,VALID,7,VALID,0,
2009-09-27, 01:39:04,VALID,1008.04,VALID,0,VALID,99.0357,VALID,0,VALID,22.7978,VALID,7,VALID,0,
2009-09-27, 01:40:04,VALID,1008.02,VALID,0,VALID,99.028,VALID,0,VALID,22.7783,VALID,7,VALID,0,
2009-09-27, 01:41:04,VALID,1008.01,VALID,0,VALID,99.0357,VALID,0,VALID,22.78,VALID,7,VALID,0,
2009-09-27, 01:42:04,VALID,1008.01,VALID,0,VALID,99.0052,VALID,0,VALID,22.7995,VALID,7,VALID,0,
2009-09-27, 01:43:04,VALID,1008.02,VALID,0,VALID,99.0128,VALID,0,VALID,22.819,VALID,7,VALID,0.346094,
2009-09-27, 01:44:04,VALID,1008.02,VALID,0,VALID,98.9899,VALID,0.105969,VALID,22.8155,VALID,7,VALID,0.275391,
2009-09-27, 01:45:04,VALID,1008.01,VALID,0,VALID,99.0052,VALID,0.105969,VALID,22.7961,VALID,7,VALID,0,
2009-09-27, 01:46:04,VALID,1008.01,VALID,0,VALID,99.0052,VALID,0.105969,VALID,22.8173,VALID,7,VALID,0,
2009-09-27, 01:47:04,VALID,1008.06,VALID,0,VALID,99.0128,VALID,0,VALID,22.7978,VALID,7,VALID,0,
2009-09-27, 01:48:04,VALID,1008.03,VALID,0,VALID,99.0357,VALID,0.105969,VALID,22.7978,VALID,7,VALID,0,
2009-09-27, 01:49:04,VALID,1008.04,VALID,0,VALID,99.028,VALID,0.105969,VALID,22.7978,VALID,7,VALID,0.145703,
2009-09-27, 01:50:04,VALID,1008.04,VALID,0,VALID,99.0204,VALID,0,VALID,22.7783,VALID,7,VALID,0.160938,
2009-09-27, 01:51:04,VALID,1008.05,VALID,0,VALID,99.028,VALID,0.105969,VALID,22.7783,VALID,7,VALID,0,
2009-09-27, 01:52:04,VALID,1008.07,VALID,0,VALID,98.9975,VALID,0.105969,VALID,22.7783,VALID,7,VALID,0,
2009-09-27, 01:53:04,VALID,1008.07,VALID,0,VALID,99.0128,VALID,0,VALID,22.7571,VALID,7,VALID,0,
2009-09-27, 01:54:04,VALID,1008.07,VALID,0,VALID,99.0052,VALID,0,VALID,22.7978,VALID,7,VALID,0,
2009-09-27, 01:55:04,VALID,1008.05,VALID,0,VALID,99.0052,VALID,0,VALID,22.7978,VALID,7,VALID,0,
2009-09-27, 01:56:04,VALID,1008.05,VALID,0,VALID,98.9975,VALID,0,VALID,22.7978,VALID,7,VALID,0,
2009-09-27, 01:57:04,VALID,1008.05,VALID,0,VALID,99.0052,VALID,0.105969,VALID,22.8173,VALID,7,VALID,0,
2009-09-27, 01:58:04,VALID,1008.05,VALID,0,VALID,98.9975,VALID,0.105969,VALID,22.7978,VALID,7,VALID,0,
2009-09-27, 01:59:04,VALID,1008.04,VALID,0,VALID,98.9823,VALID,0,VALID,22.819,VALID,7,VALID,0,
2009-09-27, 02:00:04,VALID,1008.03,VALID,0,VALID,99.0052,VALID,0,VALID,22.7978,VALID,7,VALID,0,
2009-09-27, 02:01:04,VALID,1008.05,VALID,0,VALID,99.0128,VALID,0,VALID,22.7588,VALID,7,VALID,0,
2009-09-27, 02:02:04,VALID,1008.06,VALID,0,VALID,99.0128,VALID,0,VALID,22.78,VALID,7,VALID,0,
2009-09-27, 02:03:04,VALID,1008.05,VALID,0,VALID,99.0128,VALID,0,VALID,22.7606,VALID,7,VALID,0,
2009-09-27, 02:04:04,VALID,1008.06,VALID,0,VALID,99.0357,VALID,0,VALID,22.7394,VALID,7,VALID,0,
2009-09-27, 02:05:04,VALID,1008.05,VALID,0,VALID,99.0052,VALID,0,VALID,22.7606,VALID,7,VALID,0,
2009-09-27, 02:06:04,VALID,1008.06,VALID,0,VALID,98.9975,VALID,0,VALID,22.7588,VALID,7,VALID,0,
2009-09-27, 02:07:04,VALID,1008.07,VALID,0,VALID,98.9975,VALID,0,VALID,22.78,VALID,7,VALID,0,
2009-09-27, 02:08:04,VALID,1008.07,VALID,0,VALID,98.9747,VALID,0,VALID,22.7588,VALID,7,VALID,0,
2009-09-27, 02:09:04,VALID,1008.07,VALID,0,VALID,98.9975,VALID,0,VALID,22.7588,VALID,7,VALID,0,
2009-09-27, 02:10:04,VALID,1008.1,VALID,0,VALID,98.9518,VALID,0,VALID,22.819,VALID,7,VALID,0,
2009-09-27, 02:11:04,VALID,1008.07,VALID,0,VALID,98.9518,VALID,0,VALID,22.8173,VALID,7,VALID,0,
2009-09-27, 02:12:04,VALID,1008.09,VALID,0,VALID,98.9365,VALID,0,VALID,22.858,VALID,7,VALID,0,
2009-09-27, 02:13:04,VALID,1008.09,VALID,0,VALID,98.9594,VALID,0,VALID,22.858,VALID,7,VALID,0,
2009-09-27, 02:14:04,VALID,1008.11,VALID,0,VALID,98.967,VALID,0,VALID,22.858,VALID,7,VALID,0,
2009-09-27, 02:15:04,VALID,1008.13,VALID,0,VALID,98.9594,VALID,0,VALID,22.8368,VALID,7,VALID,0,
2009-09-27, 02:16:04,VALID,1008.14,VALID,0,VALID,98.9594,VALID,0,VALID,22.858,VALID,7,VALID,0.205469,
2009-09-27, 02:17:04,VALID,1008.15,VALID,0,VALID,98.9594,VALID,0,VALID,22.8562,VALID,7,VALID,0.222266,
2009-09-27, 02:18:04,VALID,1008.16,VALID,0,VALID,98.9442,VALID,0,VALID,22.8775,VALID,7,VALID,0.196484,
2009-09-27, 02:19:04,VALID,1008.13,VALID,0,VALID,98.9747,VALID,0,VALID,22.8775,VALID,7,VALID,0.266406,
2009-09-27, 02:20:04,VALID,1008.13,VALID,0,VALID,98.9747,VALID,0,VALID,22.8562,VALID,7,VALID,0.408594,
2009-09-27, 02:21:04,VALID,1008.12,VALID,0,VALID,98.9518,VALID,0,VALID,22.8757,VALID,344,VALID,0.828125,
2009-09-27, 02:22:04,VALID,1008.11,VALID,0,VALID,98.9518,VALID,0,VALID,22.9164,VALID,14,VALID,0.476953,
2009-09-27, 02:23:04,VALID,1008.1,VALID,0,VALID,98.9594,VALID,0,VALID,22.9164,VALID,4,VALID,0.2,
2009-09-27, 02:24:04,VALID,1008.09,VALID,0,VALID,98.9823,VALID,0,VALID,22.8969,VALID,17,VALID,0.31875,
2009-09-27, 02:25:04,VALID,1008.05,VALID,0,VALID,98.9747,VALID,0,VALID,22.8969,VALID,17,VALID,0.325,
2009-09-27, 02:26:04,VALID,1008.06,VALID,0,VALID,98.9899,VALID,0,VALID,22.8969,VALID,17,VALID,0,
2009-09-27, 02:27:04,VALID,1008.05,VALID,0,VALID,98.9899,VALID,0,VALID,22.8775,VALID,17,VALID,0,
2009-09-27, 02:28:04,VALID,1008.07,VALID,0,VALID,98.9975,VALID,0,VALID,22.858,VALID,17,VALID,0,
2009-09-27, 02:29:04,VALID,1008.08,VALID,0,VALID,98.9899,VALID,0,VALID,22.8562,VALID,17,VALID,0,
2009-09-27, 02:30:04,VALID,1008.06,VALID,0,VALID,98.9975,VALID,0,VALID,22.8368,VALID,17,VALID,0,
2009-09-27, 02:31:04,VALID,1008.06,VALID,0,VALID,99.0128,VALID,0,VALID,22.8368,VALID,17,VALID,0,
2009-09-27, 02:32:04,VALID,1008.06,VALID,0,VALID,99.0128,VALID,0,VALID,22.8368,VALID,17,VALID,0,
2009-09-27, 02:33:04,VALID,1008.06,VALID,0,VALID,98.9823,VALID,0,VALID,22.8173,VALID,17,VALID,0,
2009-09-27, 02:34:04,VALID,1008.05,VALID,0,VALID,98.9747,VALID,0,VALID,22.8562,VALID,17,VALID,0,
2009-09-27, 02:35:04,VALID,1008.02,VALID,0,VALID,98.9518,VALID,0.105969,VALID,22.8155,VALID,17,VALID,0,
2009-09-27, 02:36:04,VALID,1008.06,VALID,0,VALID,98.9747,VALID,0,VALID,22.8562,VALID,17,VALID,0,
2009-09-27, 02:37:04,VALID,1008.08,VALID,0,VALID,98.9518,VALID,0.105969,VALID,22.8757,VALID,17,VALID,0,
2009-09-27, 02:38:04,VALID,1008.07,VALID,0,VALID,98.9594,VALID,0,VALID,22.8562,VALID,17,VALID,0,
2009-09-27, 02:39:04,VALID,1008.09,VALID,0,VALID,98.9747,VALID,0.105969,VALID,22.8562,VALID,17,VALID,0,
2009-09-27, 02:40:04,VALID,1008.09,VALID,0,VALID,98.967,VALID,0,VALID,22.8562,VALID,17,VALID,0,
2009-09-27, 02:41:04,VALID,1008.08,VALID,0,VALID,98.967,VALID,0,VALID,22.8368,VALID,17,VALID,0,
2009-09-27, 02:42:04,VALID,1008.08,VALID,0,VALID,98.9823,VALID,0,VALID,22.8368,VALID,17,VALID,0,
2009-09-27, 02:43:04,VALID,1008.07,VALID,0,VALID,98.9975,VALID,0,VALID,22.8385,VALID,17,VALID,0,
2009-09-27, 02:44:04,VALID,1008.04,VALID,0,VALID,99.0052,VALID,0,VALID,22.7995,VALID,17,VALID,0,
2009-09-27, 02:45:04,VALID,1008.07,VALID,0,VALID,99.0128,VALID,0,VALID,22.7588,VALID,17,VALID,0,
2009-09-27, 02:46:04,VALID,1008.08,VALID,0,VALID,98.9899,VALID,0,VALID,22.78,VALID,344,VALID,0,
2009-09-27, 02:47:04,VALID,1008.11,VALID,0,VALID,98.9747,VALID,0,VALID,22.7995,VALID,343,VALID,0,
2009-09-27, 02:48:04,VALID,1008.08,VALID,0,VALID,98.967,VALID,0,VALID,22.819,VALID,343,VALID,0,
2009-09-27, 02:49:04,VALID,1008.08,VALID,0,VALID,98.9518,VALID,0,VALID,22.819,VALID,343,VALID,0,
2009-09-27, 02:50:04,VALID,1008.13,VALID,0,VALID,98.9594,VALID,0,VALID,22.8385,VALID,343,VALID,0,
2009-09-27, 02:51:04,VALID,1008.1,VALID,0,VALID,98.9747,VALID,0,VALID,22.819,VALID,343,VALID,0,
2009-09-27, 02:52:04,VALID,1008.1,VALID,0,VALID,98.9899,VALID,0,VALID,22.819,VALID,343,VALID,0,
2009-09-27, 02:53:04,VALID,1008.1,VALID,0,VALID,98.9975,VALID,0,VALID,22.7995,VALID,343,VALID,0,
2009-09-27, 02:54:04,VALID,1008.12,VALID,0,VALID,98.9975,VALID,0,VALID,22.78,VALID,343,VALID,0,
2009-09-27, 02:55:04,VALID,1008.13,VALID,0,VALID,98.9975,VALID,0,VALID,22.78,VALID,343,VALID,0,
2009-09-27, 02:56:04,VALID,1008.12,VALID,0,VALID,98.9823,VALID,0,VALID,22.78,VALID,343,VALID,0,
2009-09-27, 02:57:04,VALID,1008.11,VALID,0,VALID,98.9899,VALID,0,VALID,22.7606,VALID,343,VALID,0,
2009-09-27, 02:58:04,VALID,1008.12,VALID,0,VALID,98.9823,VALID,0,VALID,22.7606,VALID,343,VALID,0,
2009-09-27, 02:59:04,VALID,1008.13,VALID,0,VALID,98.9975,VALID,0,VALID,22.7411,VALID,343,VALID,0,
2009-09-27, 03:00:04,VALID,1008.13,VALID,0,VALID,98.9975,VALID,0,VALID,22.7411,VALID,343,VALID,0,
2009-09-27, 03:01:04,VALID,1008.14,VALID,0,VALID,99.0128,VALID,0,VALID,22.7216,VALID,343,VALID,0,
2009-09-27, 03:02:04,VALID,1008.17,VALID,0,VALID,98.9823,VALID,0,VALID,22.7004,VALID,343,VALID,0,
2009-09-27, 03:03:04,VALID,1008.16,VALID,0,VALID,98.9823,VALID,0,VALID,22.7411,VALID,343,VALID,0,
2009-09-27, 03:04:04,VALID,1008.19,VALID,0,VALID,98.9442,VALID,0,VALID,22.7411,VALID,343,VALID,0,
2009-09-27, 03:05:04,VALID,1008.21,VALID,0,VALID,98.9442,VALID,0,VALID,22.7394,VALID,4,VALID,0.303906,
2009-09-27, 03:06:04,VALID,1008.23,VALID,0,VALID,98.9518,VALID,0,VALID,22.7411,VALID,4,VALID,0.113281,
2009-09-27, 03:07:04,VALID,1008.26,VALID,0,VALID,99.0052,VALID,0,VALID,22.7411,VALID,4,VALID,0,
2009-09-27, 03:08:04,VALID,1008.29,VALID,0,VALID,98.9975,VALID,0,VALID,22.7216,VALID,4,VALID,0,
2009-09-27, 03:09:04,VALID,1008.3,VALID,0,VALID,98.9975,VALID,0,VALID,22.7216,VALID,4,VALID,0,
2009-09-27, 03:10:04,VALID,1008.31,VALID,0,VALID,99.0052,VALID,0,VALID,22.7216,VALID,4,VALID,0,
2009-09-27, 03:11:04,VALID,1008.3,VALID,0,VALID,98.9747,VALID,0,VALID,22.7021,VALID,4,VALID,0,
2009-09-27, 03:12:04,VALID,1008.29,VALID,0,VALID,99.0052,VALID,0,VALID,22.7021,VALID,4,VALID,0,
2009-09-27, 03:13:04,VALID,1008.3,VALID,0,VALID,99.0052,VALID,0,VALID,22.7021,VALID,4,VALID,0,
2009-09-27, 03:14:04,VALID,1008.3,VALID,0,VALID,98.9823,VALID,0,VALID,22.6614,VALID,4,VALID,0,
2009-09-27, 03:15:04,VALID,1008.31,VALID,0,VALID,98.9899,VALID,0,VALID,22.6826,VALID,4,VALID,0.0964844,
2009-09-27, 03:16:04,VALID,1008.32,VALID,0,VALID,98.9975,VALID,0,VALID,22.6632,VALID,4,VALID,0,
2009-09-27, 03:17:04,VALID,1008.32,VALID,0,VALID,98.9899,VALID,0,VALID,22.642,VALID,4,VALID,0,
2009-09-27, 03:18:04,VALID,1008.33,VALID,0,VALID,98.9747,VALID,0,VALID,22.6632,VALID,4,VALID,0,
2009-09-27, 03:19:04,VALID,1008.34,VALID,0,VALID,98.9899,VALID,0,VALID,22.6632,VALID,4,VALID,0,
2009-09-27, 03:20:04,VALID,1008.35,VALID,0,VALID,98.9975,VALID,0,VALID,22.6632,VALID,4,VALID,0.116016,
2009-09-27, 03:21:04,VALID,1008.34,VALID,0,VALID,98.9747,VALID,0,VALID,22.6632,VALID,4,VALID,0,
2009-09-27, 03:22:04,VALID,1008.34,VALID,0,VALID,98.9823,VALID,0,VALID,22.6632,VALID,4,VALID,0,
2009-09-27, 03:23:04,VALID,1008.35,VALID,0,VALID,98.9823,VALID,0,VALID,22.6437,VALID,4,VALID,0,
2009-09-27, 03:24:04,VALID,1008.36,VALID,0,VALID,98.9823,VALID,0,VALID,22.6632,VALID,4,VALID,0,
2009-09-27, 03:25:04,VALID,1008.37,VALID,0,VALID,98.9594,VALID,0,VALID,22.6437,VALID,40,VALID,0.332812,
2009-09-27, 03:26:04,VALID,1008.4,VALID,0,VALID,98.9823,VALID,0,VALID,22.6437,VALID,40,VALID,0.267188,
2009-09-27, 03:27:04,VALID,1008.41,VALID,0,VALID,98.9823,VALID,0,VALID,22.6437,VALID,40,VALID,0.25,
2009-09-27, 03:28:04,VALID,1008.4,VALID,0,VALID,98.9747,VALID,0,VALID,22.6632,VALID,59,VALID,0,
2009-09-27, 03:29:04,VALID,1008.43,VALID,0,VALID,98.9747,VALID,0,VALID,22.6632,VALID,59,VALID,0,
2009-09-27, 03:30:04,VALID,1008.43,VALID,0,VALID,98.9899,VALID,0,VALID,22.6632,VALID,59,VALID,0,
2009-09-27, 03:31:04,VALID,1008.46,VALID,0,VALID,98.9823,VALID,0,VALID,22.6437,VALID,59,VALID,0,
2009-09-27, 03:32:04,VALID,1008.47,VALID,0,VALID,98.9899,VALID,0,VALID,22.642,VALID,59,VALID,0,
2009-09-27, 03:33:04,VALID,1008.46,VALID,0,VALID,98.9823,VALID,0,VALID,22.6632,VALID,59,VALID,0,
2009-09-27, 03:34:04,VALID,1008.45,VALID,0,VALID,98.9899,VALID,0,VALID,22.6632,VALID,59,VALID,0,
2009-09-27, 03:35:04,VALID,1008.42,VALID,0,VALID,98.9747,VALID,0,VALID,22.6614,VALID,59,VALID,0,
2009-09-27, 03:36:04,VALID,1008.41,VALID,0,VALID,98.9823,VALID,0,VALID,22.642,VALID,59,VALID,0,
2009-09-27, 03:37:04,VALID,1008.43,VALID,0,VALID,98.9899,VALID,0,VALID,22.642,VALID,59,VALID,0,
2009-09-27, 03:38:04,VALID,1008.42,VALID,0,VALID,98.9975,VALID,0,VALID,22.6437,VALID,59,VALID,0,
2009-09-27, 03:39:04,VALID,1008.43,VALID,0,VALID,98.9747,VALID,0,VALID,22.6225,VALID,59,VALID,0,
2009-09-27, 03:40:04,VALID,1008.41,VALID,0,VALID,98.9975,VALID,0,VALID,22.603,VALID,59,VALID,0,
2009-09-27, 03:41:04,VALID,1008.4,VALID,0,VALID,99.0052,VALID,0,VALID,22.603,VALID,59,VALID,0,
2009-09-27, 03:42:04,VALID,1008.39,VALID,0,VALID,98.9899,VALID,0,VALID,22.6242,VALID,59,VALID,0,
2009-09-27, 03:43:04,VALID,1008.42,VALID,0,VALID,99.0128,VALID,0,VALID,22.5835,VALID,59,VALID,0,
2009-09-27, 03:44:04,VALID,1008.38,VALID,0,VALID,99.0052,VALID,0,VALID,22.564,VALID,59,VALID,0,
2009-09-27, 03:45:04,VALID,1008.37,VALID,0,VALID,98.9975,VALID,0,VALID,22.564,VALID,59,VALID,0,
2009-09-27, 03:46:04,VALID,1008.35,VALID,0,VALID,99.0128,VALID,0,VALID,22.5852,VALID,59,VALID,0,
2009-09-27, 03:47:04,VALID,1008.34,VALID,0,VALID,98.9823,VALID,0,VALID,22.5835,VALID,59,VALID,0,
2009-09-27, 03:48:04,VALID,1008.29,VALID,0,VALID,98.9823,VALID,0,VALID,22.5835,VALID,59,VALID,0,
2009-09-27, 03:49:04,VALID,1008.3,VALID,0,VALID,98.9747,VALID,0,VALID,22.5835,VALID,59,VALID,0,
2009-09-27, 03:50:04,VALID,1008.26,VALID,0,VALID,98.967,VALID,0,VALID,22.5852,VALID,59,VALID,0,
2009-09-27, 03:51:04,VALID,1008.28,VALID,0,VALID,99.0128,VALID,0,VALID,22.5463,VALID,59,VALID,0,
2009-09-27, 03:52:04,VALID,1008.29,VALID,0,VALID,99.028,VALID,0,VALID,22.5268,VALID,59,VALID,0,
2009-09-27, 03:53:04,VALID,1008.27,VALID,0,VALID,99.0357,VALID,0,VALID,22.5056,VALID,59,VALID,0,
2009-09-27, 03:54:04,VALID,1008.27,VALID,0,VALID,99.0204,VALID,0,VALID,22.4861,VALID,59,VALID,0,
2009-09-27, 03:55:04,VALID,1008.28,VALID,0,VALID,98.9899,VALID,0,VALID,22.5056,VALID,59,VALID,0,
2009-09-27, 03:56:04,VALID,1008.29,VALID,0,VALID,98.9975,VALID,0,VALID,22.5056,VALID,59,VALID,0,
2009-09-27, 03:57:04,VALID,1008.27,VALID,0,VALID,98.9823,VALID,0,VALID,22.5251,VALID,59,VALID,0,
2009-09-27, 03:58:04,VALID,1008.27,VALID,0,VALID,98.967,VALID,0,VALID,22.5268,VALID,59,VALID,0,
2009-09-27, 03:59:04,VALID,1008.26,VALID,0,VALID,98.9899,VALID,0,VALID,22.5056,VALID,59,VALID,0,
2009-09-27, 04:00:04,VALID,1008.25,VALID,0,VALID,99.0204,VALID,0,VALID,22.5073,VALID,59,VALID,0,